SCP
0 0 0 0 0 0 0 0 0 0 0 0 0 0 0 0 0 0 0 0 0 0 0 0 0 0 0 0 0 0 0 0 0 0 0 0 0 0 0 0 0 0 1 3 2
0 0 0 0 0 0 0 0 0 0 0 0 0 0 0 0 0 0 0 0 0 0 0 0 0 0 0 0 0 0 0 0 0 0 0 -0 -0 0 -0 0 0 2 2 2 2
0 0 0 0 0 0 0 0 0 0 0 0 0 0 0 0 0 -0 0 -0 0 0 0 0 0 0 0 0 0 0 0 0 0 0 0 -0 -0 -0 0 0 0 2 2 2 2
0 0 0 0 0 0 0 0 0 0 0 0 0 0 0 0 0 0 0 0 0 0 0 0 0 0 0 0 0 0 0 0 0 0 0 0 -0 0 0 0 0 3 2 1 1
0 0 0 0 0 0 0 0 0 0 0 0 0 0 0 0 0 0 -0 0 0 0 0 0 0 0 0 0 0 0 0 0 0 0 0 0 0 0 0 0 0 1 2 1 1
0 0 0 0 0 0 0 0 0 0 0 0 0 0 0 0 0 0 0 0 0 0 0 0 0 0 0 0 0 0 0 0 0 0 0 0 -0 0 0 0 0 0 1 1 1
0 0 0 0 0 0 0 0 0 0 0 0 0 0 0 0 0 0 -0 -0 0 0 0 0 0 0 0 0 0 0 0 0 0 0 0 0 -0 0 0 0 0 0 0 0 0
0 0 0 0 0 0 0 0 0 0 0 0 0 0 0 0 0 0 -0 -0 -0 -0 0 0 0 0 0 0 0 0 0 0 0 0 0 0 0 -0 0 0 0 0 0 0 0
0 0 0 0 0 0 0 0 0 0 0 0 0 0 0 -0 0 0 0 0 0 0 0 0 0 0 0 0 0 0 0 0 0 0 0 0 0 -0 0 0 0 0 0 0 0
0 0 0 0 0 0 0 0 -0 0 0 0 0 0 0 0 0 0 0 -0 -0 0 0 0 0 0 0 0 0 0 0 0 0 0 0 0 0 0 0 0 0 0 0 0 0
0 0 0 0 0 0 0 0 0 0 0 0 0 0 -0 0 -0 -0 -0 0 0 0 0 0 0 0 0 0 0 0 0 0 0 0 0 0 0 0 0 0 0 0 0 0 0
0 0 0 0 0 0 0 0 0 0 0 0 0 0 0 -0 0 0 0 0 0 0 0 0 0 0 0 0 0 0 0 0 0 0 0 0 0 0 0 0 0 0 0 0 0
0 0 0 0 -0 0 0 0 0 0 0 0 0 0 0 0 0 0 0 0 0 0 0 0 0 0 0 0 0 0 0 0 0 0 0 0 0 0 0 0 0 0 0 0 0
0 0 0 -0 0 0 0 0 0 0 0 0 0 0 0 0 0 0 0 0 0 0 0 0 -0 -0 0 0 0 0 0 0 0 0 0 0 0 0 0 0 0 0 0 0 0
0 0 -0 0 0 0 0 0 0 0 0 -0 0 0 0 0 0 0 0 0 0 0 0 0 0 0 0 0 0 0 0 0 0 0 0 0 0 0 0 0 0 0 0 0 0
0 0 -0 0 0 0 0 0 0 0 0 -0 -0 0 0 0 0 0 0 0 0 0 0 -0 0 -0 -0 0 0 -0 0 0 0 0 0 0 0 0 0 0 0 0 0 0 0
0 0 -0 0 0 0 0 0 0 0 0 0 -0 0 0 0 0 0 0 0 0 0 0 0 -0 0 -0 0 0 0 0 0 0 0 0 0 0 0 0 0 0 0 0 0 0
0 0 0 0 0 0 0 0 0 0 0 0 0 0 0 0 0 0 0 0 0 0 0 0 0 0 -0 0 0 0 0 0 0 0 0 0 0 0 0 0 0 0 0 0 0
0 0 0 0 0 0 0 0 0 0 -0 -0 -0 0 0 0 0 0 0 0 0 0 0 0 0 0 0 0 0 0 -0 0 0 0 0 0 0 0 0 0 0 0 0 0 0
0 0 0 0 0 0 0 0 0 0 0 0 0 0 0 0 0 0 0 0 0 0 0 0 0 0 0 0 0 0 0 0 0 0 0 0 0 0 0 0 0 0 0 1 3
0 0 0 0 0 0 0 0 0 0 0 0 0 0 0 0 0 0 0 0 0 0 0 0 0 0 0 0 0 0 0 0 0 0 0 0 0 0 0 0 0 0 1 2 2
0 0 0 0 0 0 0 0 0 0 0 0 0 0 0 0 0 0 0 0 0 0 -0 -0 0 -0 0 0 0 0 -0 0 0 0 0 0 0 0 0 0 1 1 1 1 1
0 0 0 0 0 0 0 0 0 0 0 0 0 0 0 0 0 0 0 0 0 0 0 -0 0 -0 0 0 0 0 0 0 0 0 0 0 0 0 1 2 1 1 1 0 0
0 0 0 0 0 0 0 0 0 0 0 0 0 0 0 0 0 0 0 0 -0 0 0 -0 0 0 0 0 0 0 0 0 0 0 0 0 0 0 1 2 1 1 0 0 0
0 0 0 0 0 0 0 0 0 0 0 0 0 0 -0 0 -0 0 0 -0 0 0 0 0 -0 0 0 0 0 -0 0 0 0 0 0 0 0 0 0 0 0 0 0 0 0
0 0 0 0 0 0 0 0 0 0 0 0 0 -0 0 0 0 0 -0 -0 0 0 -0 0 -0 -0 0 0 0 -0 0 0 -0 -0 0 0 1 0 0 0 0 0 0 0 0
0 0 0 0 0 0 0 0 0 0 0 0 0 -0 -0 0 0 -0 -0 -0 -0 0 0 0 -0 -0 -0 0 0 0 0 0 0 -0 0 0 0 0 0 0 0 0 0 0 0
Wind_Speed_500mb
42 43 45 46 47 50 51 50 50 49 49 49 50 50 51 54 56 58 72 62 45 42 36 32 41 27 23 21 40 22 7 27 37 24 17 31 8 43 43 51 61 24 43 85 88
42 44 45 45 47 46 47 48 47 44 46 48 48 47 47 56 60 68 24 13 29 17 21 33 43 25 19 19 20 16 19 25 8 28 11 43 22 27 26 38 13 43 52 88 96
46 47 49 54 58 59 61 57 53 49 48 50 46 45 48 55 52 4 11 11 31 24 17 24 43 30 23 34 25 15 41 37 24 43 38 39 38 34 22 21 24 62 84 85 99
51 54 57 61 63 65 65 60 57 54 51 48 41 44 47 36 12 2 7 22 33 25 11 17 27 30 10 15 32 16 41 50 23 36 33 36 36 28 21 42 31 72 92 97 94
55 58 61 64 65 70 66 60 55 51 50 44 37 38 25 17 46 24 22 23 23 27 13 18 25 31 10 10 18 26 25 30 44 54 64 55 38 21 52 75 40 70 94 92 96
59 62 64 68 67 72 65 54 47 45 44 41 37 25 17 20 30 19 21 21 13 19 17 19 18 29 28 16 29 17 15 26 48 51 50 44 41 27 66 63 23 71 85 89 90
62 64 67 70 70 72 61 46 39 35 36 35 30 19 26 60 32 19 12 6 8 8 21 35 30 25 16 28 57 48 32 31 26 46 43 24 33 50 73 59 50 34 77 83 84
64 68 70 73 76 71 52 37 26 33 47 36 28 14 26 47 23 16 11 14 10 8 20 23 26 31 31 36 49 9 10 25 47 27 51 30 44 50 49 46 46 18 47 85 83
68 72 75 76 77 60 39 26 21 37 26 18 14 10 28 18 22 30 25 34 36 16 13 15 17 23 16 7 14 8 19 27 30 27 17 36 41 41 48 49 50 29 35 58 52
71 76 79 77 69 41 28 30 29 12 7 24 6 11 19 17 31 46 46 53 55 35 23 10 5 4 4 9 23 27 20 29 29 27 23 42 30 17 39 44 41 33 32 52 60
74 79 81 76 47 29 32 40 28 4 25 35 43 47 64 46 43 48 33 33 16 16 10 11 7 19 32 24 27 33 32 33 21 24 23 45 26 22 19 17 21 36 36 51 58
76 81 81 54 27 20 28 34 17 20 28 35 24 34 45 45 32 48 33 36 19 19 12 7 29 28 27 29 31 33 39 40 29 31 26 35 20 32 18 14 26 43 45 56 56
79 81 72 38 21 24 36 40 30 31 9 26 17 27 32 47 34 45 26 16 13 32 33 26 25 20 32 31 35 39 31 26 26 32 39 13 30 17 31 32 40 49 60 68 70
81 77 45 41 14 31 34 44 42 32 8 12 6 16 51 37 9 30 15 8 7 20 28 18 34 41 34 33 33 32 25 27 34 24 20 32 23 17 32 31 23 38 57 78 74
84 59 21 31 28 31 36 32 30 23 5 33 9 25 65 15 38 6 7 5 15 23 4 15 9 24 34 33 33 25 25 34 29 32 19 24 17 30 21 23 39 25 57 79 79
70 30 25 32 34 37 41 45 21 9 8 18 35 38 35 35 31 26 24 12 6 14 30 38 35 21 16 17 25 22 28 34 31 24 22 29 14 13 18 43 31 17 53 69 78
42 15 33 40 37 27 41 29 9 9 24 21 47 39 38 20 25 18 25 9 6 9 10 15 42 33 31 7 15 13 23 6 11 11 10 13 1 15 34 38 22 22 50 65 80
30 17 29 42 39 21 33 11 13 17 22 31 29 36 11 27 22 27 20 10 5 14 7 8 6 28 34 18 14 20 15 5 7 9 9 8 12 14 24 30 46 54 54 63 70
35 13 42 40 35 8 20 10 4 11 23 33 25 10 18 31 12 22 14 4 3 7 7 7 11 13 25 22 13 11 16 9 8 7 8 13 10 11 12 17 19 32 53 62 52
32 8 42 37 26 23 13 6 9 20 20 10 6 8 23 26 23 24 10 4 8 9 10 6 13 6 25 23 19 12 25 8 7 6 7 10 8 8 17 20 27 20 25 54 78
23 7 36 35 14 20 6 8 13 37 29 9 12 15 17 17 22 13 10 17 4 13 11 16 5 7 18 10 16 7 7 7 6 6 6 10 10 12 15 17 23 23 50 74 75
26 5 25 34 16 8 8 16 34 39 41 8 8 5 12 19 22 14 15 14 25 23 14 8 7 5 9 4 20 10 15 18 7 9 6 4 5 22 18 36 44 46 66 78 88
32 13 19 33 7 8 14 12 30 31 29 13 10 3 19 15 16 15 12 14 28 20 5 5 1 5 9 13 10 3 19 10 8 5 5 4 2 17 14 35 60 65 79 85 90
19 9 18 18 21 7 10 11 24 35 18 21 17 14 24 27 15 23 38 16 53 22 23 12 2 4 5 7 10 14 24 9 13 5 10 5 21 18 23 34 35 69 77 86 84
23 6 11 9 12 21 18 18 31 25 10 19 10 23 36 24 36 11 28 44 19 15 10 5 5 7 10 22 20 25 30 14 13 17 1 5 18 9 12 24 41 73 83 89 84
12 14 11 15 27 18 12 16 24 41 23 19 23 51 36 32 22 44 48 35 11 6 4 3 5 3 3 4 14 32 23 5 11 21 14 8 13 5 20 52 56 68 77 79 78
21 22 15 15 14 9 6 21 35 35 22 37 42 42 40 23 66 79 67 49 31 23 11 6 3 2 2 2 15 14 8 16 9 5 18 23 11 10 32 33 47 65 74 76 77
Wind_Direction_500mb
357 354 352 348 344 340 335 330 323 319 315 313 310 308 307 304 299 300 299 298 282 284 268 253 238 229 211 230 210 219 208 232 226 204 235 268 276 278 284 278 287 194 176 173 169
355 352 349 347 345 342 337 330 322 315 315 311 312 309 310 310 311 314 325 288 53 6 313 276 248 229 232 230 212 191 223 231 194 218 234 262 260 305 326 327 323 116 152 150 157
353 351 349 350 350 347 342 338 330 323 316 314 315 310 310 314 323 278 95 34 323 325 315 289 245 231 235 232 203 206 233 230 258 240 250 262 273 298 307 291 217 142 150 153 164
352 351 351 352 348 345 339 336 331 327 315 313 312 305 315 320 305 258 240 282 279 296 304 299 214 226 210 218 229 255 243 236 258 268 260 253 287 279 258 278 282 163 160 163 161
351 351 349 349 346 343 338 335 331 329 322 322 309 308 316 295 276 306 283 264 300 303 277 235 212 221 227 258 270 249 249 252 249 254 268 279 261 296 282 283 303 171 166 170 173
350 348 347 345 343 341 337 333 333 332 326 317 307 301 289 271 328 315 293 300 333 302 287 248 233 228 259 245 244 283 291 270 260 263 257 254 274 275 269 272 282 184 170 175 178
347 346 345 342 340 338 335 333 336 332 323 307 296 289 266 272 329 299 275 300 14 319 303 260 270 310 266 243 256 266 282 278 263 241 247 257 275 242 252 265 267 170 182 178 181
345 344 343 341 339 337 336 342 341 333 315 301 284 251 261 309 299 296 258 286 260 263 288 307 285 264 268 276 289 308 249 244 251 235 241 185 258 253 242 246 243 198 159 182 183
345 342 342 340 338 337 346 358 353 321 316 324 307 258 269 319 302 332 307 303 310 253 262 311 257 247 270 284 284 223 247 236 239 227 228 190 239 263 243 235 228 192 183 160 179
345 341 341 340 338 341 356 354 360 328 343 350 48 304 272 299 288 288 296 288 284 252 250 256 270 216 175 219 236 241 238 247 237 232 228 237 240 266 205 207 205 209 193 181 176
345 341 340 341 342 349 5 3 7 289 304 289 270 256 274 312 301 301 305 306 237 215 179 195 187 229 246 227 234 245 263 258 265 219 210 238 235 233 224 195 209 203 205 192 190
345 344 343 348 4 6 1 353 316 335 315 327 291 277 289 305 282 295 308 271 245 251 208 340 249 246 245 240 243 261 247 258 291 241 216 232 241 212 216 210 210 213 201 211 207
344 345 346 8 19 22 6 353 346 342 318 300 311 291 351 339 288 298 327 269 311 280 259 216 232 251 225 233 238 242 249 249 256 283 236 220 238 216 216 204 216 228 218 203 210
342 344 347 14 34 5 360 342 326 336 47 283 349 348 342 337 323 316 288 269 217 268 236 239 244 242 234 237 213 241 249 272 247 268 248 209 224 218 199 207 200 208 214 207 202
344 343 359 358 10 1 359 351 317 324 322 327 19 324 337 334 325 337 307 143 242 248 249 223 307 218 224 225 212 231 248 262 292 250 269 220 198 224 185 198 211 203 209 217 208
350 359 20 1 2 359 353 338 319 42 298 332 348 325 337 328 346 336 331 232 252 264 234 250 257 270 259 211 221 192 227 258 259 273 229 240 172 205 182 202 205 192 207 215 209
1 14 19 357 353 351 347 345 42 61 332 330 328 332 313 346 331 319 330 298 285 309 235 253 236 235 225 177 215 189 177 219 191 217 216 240 338 225 207 211 175 172 196 210 212
1 13 9 351 350 332 348 41 48 11 304 319 322 314 306 6 329 326 314 324 351 301 292 284 289 209 200 195 167 184 131 231 164 156 176 178 210 238 212 197 182 190 195 202 202
1 34 12 6 357 331 348 43 255 327 338 327 326 327 318 336 338 332 312 262 247 2 289 300 270 232 182 167 166 147 150 191 301 229 97 161 286 308 193 158 155 179 182 193 162
353 62 14 3 28 45 60 305 330 307 322 302 290 289 309 332 324 337 305 175 295 248 301 241 290 222 161 160 190 161 147 154 226 205 116 160 189 221 182 176 175 150 139 117 131
358 23 13 1 353 30 99 241 298 322 328 307 276 290 302 310 309 310 285 304 194 289 321 270 252 111 135 173 155 135 106 127 265 222 153 132 221 350 282 168 151 117 120 122 124
356 357 346 2 41 7 349 314 306 342 345 296 317 287 286 301 315 293 267 280 304 315 314 302 336 254 185 62 155 165 160 148 154 278 341 172 295 332 311 135 125 125 121 119 120
339 307 338 23 52 340 312 304 329 341 333 352 287 267 281 298 308 249 270 252 305 315 240 350 330 344 76 19 344 208 156 157 206 84 235 104 156 340 53 118 124 124 119 117 116
358 359 341 21 6 28 348 295 341 343 320 344 285 292 314 307 286 286 287 305 329 301 291 216 252 238 201 111 183 167 163 260 139 121 313 26 124 62 85 116 118 114 113 113 111
14 21 17 320 336 328 307 351 333 341 323 322 285 309 319 310 314 275 300 313 312 136 317 178 267 232 223 219 255 152 158 260 129 139 57 123 111 71 72 98 114 112 110 108 108
32 353 326 288 303 323 348 344 326 331 328 306 313 319 314 306 303 307 306 306 274 173 226 335 257 320 31 134 109 123 155 178 89 97 248 155 86 341 92 106 104 106 108 105 105
11 345 302 293 324 351 335 319 310 325 296 307 320 320 317 311 307 291 283 279 267 272 188 217 281 4 308 313 89 76 6 152 64 154 183 152 135 114 102 96 103 106 102 103 104
Wind_Speed_850mb
42 43 45 46 47 50 51 50 50 49 49 49 50 50 51 54 56 58 72 62 45 42 36 32 41 27 23 21 40 22 7 27 37 24 17 31 8 43 43 51 61 24 43 85 88
42 44 45 45 47 46 47 48 47 44 46 48 48 47 47 56 60 68 24 13 29 17 21 33 43 25 19 19 20 16 19 25 8 28 11 43 22 27 26 38 13 43 52 88 96
46 47 49 54 58 59 61 57 53 49 48 50 46 45 48 55 52 4 11 11 31 24 17 24 43 30 23 34 25 15 41 37 24 43 38 39 38 34 22 21 24 62 84 85 99
51 54 57 61 63 65 65 60 57 54 51 48 41 44 47 36 12 2 7 22 33 25 11 17 27 30 10 15 32 16 41 50 23 36 33 36 36 28 21 42 31 72 92 97 94
55 58 61 64 65 70 66 60 55 51 50 44 37 38 25 17 46 24 22 23 23 27 13 18 25 31 10 10 18 26 25 30 44 54 64 55 38 21 52 75 40 70 94 92 96
59 62 64 68 67 72 65 54 47 45 44 41 37 25 17 20 30 19 21 21 13 19 17 19 18 29 28 16 29 17 15 26 48 51 50 44 41 27 66 63 23 71 85 89 90
62 64 67 70 70 72 61 46 39 35 36 35 30 19 26 60 32 19 12 6 8 8 21 35 30 25 16 28 57 48 32 31 26 46 43 24 33 50 73 59 50 34 77 83 84
64 68 70 73 76 71 52 37 26 33 47 36 28 14 26 47 23 16 11 14 10 8 20 23 26 31 31 36 49 9 10 25 47 27 51 30 44 50 49 46 46 18 47 85 83
68 72 75 76 77 60 39 26 21 37 26 18 14 10 28 18 22 30 25 34 36 16 13 15 17 23 16 7 14 8 19 27 30 27 17 36 41 41 48 49 50 29 35 58 52
71 76 79 77 69 41 28 30 29 12 7 24 6 11 19 17 31 46 46 53 55 35 23 10 5 4 4 9 23 27 20 29 29 27 23 42 30 17 39 44 41 33 32 52 60
74 79 81 76 47 29 32 40 28 4 25 35 43 47 64 46 43 48 33 33 16 16 10 11 7 19 32 24 27 33 32 33 21 24 23 45 26 22 19 17 21 36 36 51 58
76 81 81 54 27 20 28 34 17 20 28 35 24 34 45 45 32 48 33 36 19 19 12 7 29 28 27 29 31 33 39 40 29 31 26 35 20 32 18 14 26 43 45 56 56
79 81 72 38 21 24 36 40 30 31 9 26 17 27 32 47 34 45 26 16 13 32 33 26 25 20 32 31 35 39 31 26 26 32 39 13 30 17 31 32 40 49 60 68 70
81 77 45 41 14 31 34 44 42 32 8 12 6 16 51 37 9 30 15 8 7 20 28 18 34 41 34 33 33 32 25 27 34 24 20 32 23 17 32 31 23 38 57 78 74
84 59 21 31 28 31 36 32 30 23 5 33 9 25 65 15 38 6 7 5 15 23 4 15 9 24 34 33 33 25 25 34 29 32 19 24 17 30 21 23 39 25 57 79 79
70 30 25 32 34 37 41 45 21 9 8 18 35 38 35 35 31 26 24 12 6 14 30 38 35 21 16 17 25 22 28 34 31 24 22 29 14 13 18 43 31 17 53 69 78
42 15 33 40 37 27 41 29 9 9 24 21 47 39 38 20 25 18 25 9 6 9 10 15 42 33 31 7 15 13 23 6 11 11 10 13 1 15 34 38 22 22 50 65 80
30 17 29 42 39 21 33 11 13 17 22 31 29 36 11 27 22 27 20 10 5 14 7 8 6 28 34 18 14 20 15 5 7 9 9 8 12 14 24 30 46 54 54 63 70
35 13 42 40 35 8 20 10 4 11 23 33 25 10 18 31 12 22 14 4 3 7 7 7 11 13 25 22 13 11 16 9 8 7 8 13 10 11 12 17 19 32 53 62 52
32 8 42 37 26 23 13 6 9 20 20 10 6 8 23 26 23 24 10 4 8 9 10 6 13 6 25 23 19 12 25 8 7 6 7 10 8 8 17 20 27 20 25 54 78
23 7 36 35 14 20 6 8 13 37 29 9 12 15 17 17 22 13 10 17 4 13 11 16 5 7 18 10 16 7 7 7 6 6 6 10 10 12 15 17 23 23 50 74 75
26 5 25 34 16 8 8 16 34 39 41 8 8 5 12 19 22 14 15 14 25 23 14 8 7 5 9 4 20 10 15 18 7 9 6 4 5 22 18 36 44 46 66 78 88
32 13 19 33 7 8 14 12 30 31 29 13 10 3 19 15 16 15 12 14 28 20 5 5 1 5 9 13 10 3 19 10 8 5 5 4 2 17 14 35 60 65 79 85 90
19 9 18 18 21 7 10 11 24 35 18 21 17 14 24 27 15 23 38 16 53 22 23 12 2 4 5 7 10 14 24 9 13 5 10 5 21 18 23 34 35 69 77 86 84
23 6 11 9 12 21 18 18 31 25 10 19 10 23 36 24 36 11 28 44 19 15 10 5 5 7 10 22 20 25 30 14 13 17 1 5 18 9 12 24 41 73 83 89 84
12 14 11 15 27 18 12 16 24 41 23 19 23 51 36 32 22 44 48 35 11 6 4 3 5 3 3 4 14 32 23 5 11 21 14 8 13 5 20 52 56 68 77 79 78
21 22 15 15 14 9 6 21 35 35 22 37 42 42 40 23 66 79 67 49 31 23 11 6 3 2 2 2 15 14 8 16 9 5 18 23 11 10 32 33 47 65 74 76 77
Wind_Direction_850mb
357 354 352 348 344 340 335 330 323 319 315 313 310 308 307 304 299 300 299 298 282 284 268 253 238 229 211 230 210 219 208 232 226 204 235 268 276 278 284 278 287 194 176 173 169
355 352 349 347 345 342 337 330 322 315 315 311 312 309 310 310 311 314 325 288 53 6 313 276 248 229 232 230 212 191 223 231 194 218 234 262 260 305 326 327 323 116 152 150 157
353 351 349 350 350 347 342 338 330 323 316 314 315 310 310 314 323 278 95 34 323 325 315 289 245 231 235 232 203 206 233 230 258 240 250 262 273 298 307 291 217 142 150 153 164
352 351 351 352 348 345 339 336 331 327 315 313 312 305 315 320 305 258 240 282 279 296 304 299 214 226 210 218 229 255 243 236 258 268 260 253 287 279 258 278 282 163 160 163 161
351 351 349 349 346 343 338 335 331 329 322 322 309 308 316 295 276 306 283 264 300 303 277 235 212 221 227 258 270 249 249 252 249 254 268 279 261 296 282 283 303 171 166 170 173
350 348 347 345 343 341 337 333 333 332 326 317 307 301 289 271 328 315 293 300 333 302 287 248 233 228 259 245 244 283 291 270 260 263 257 254 274 275 269 272 282 184 170 175 178
347 346 345 342 340 338 335 333 336 332 323 307 296 289 266 272 329 299 275 300 14 319 303 260 270 310 266 243 256 266 282 278 263 241 247 257 275 242 252 265 267 170 182 178 181
345 344 343 341 339 337 336 342 341 333 315 301 284 251 261 309 299 296 258 286 260 263 288 307 285 264 268 276 289 308 249 244 251 235 241 185 258 253 242 246 243 198 159 182 183
345 342 342 340 338 337 346 358 353 321 316 324 307 258 269 319 302 332 307 303 310 253 262 311 257 247 270 284 284 223 247 236 239 227 228 190 239 263 243 235 228 192 183 160 179
345 341 341 340 338 341 356 354 360 328 343 350 48 304 272 299 288 288 296 288 284 252 250 256 270 216 175 219 236 241 238 247 237 232 228 237 240 266 205 207 205 209 193 181 176
345 341 340 341 342 349 5 3 7 289 304 289 270 256 274 312 301 301 305 306 237 215 179 195 187 229 246 227 234 245 263 258 265 219 210 238 235 233 224 195 209 203 205 192 190
345 344 343 348 4 6 1 353 316 335 315 327 291 277 289 305 282 295 308 271 245 251 208 340 249 246 245 240 243 261 247 258 291 241 216 232 241 212 216 210 210 213 201 211 207
344 345 346 8 19 22 6 353 346 342 318 300 311 291 351 339 288 298 327 269 311 280 259 216 232 251 225 233 238 242 249 249 256 283 236 220 238 216 216 204 216 228 218 203 210
342 344 347 14 34 5 360 342 326 336 47 283 349 348 342 337 323 316 288 269 217 268 236 239 244 242 234 237 213 241 249 272 247 268 248 209 224 218 199 207 200 208 214 207 202
344 343 359 358 10 1 359 351 317 324 322 327 19 324 337 334 325 337 307 143 242 248 249 223 307 218 224 225 212 231 248 262 292 250 269 220 198 224 185 198 211 203 209 217 208
350 359 20 1 2 359 353 338 319 42 298 332 348 325 337 328 346 336 331 232 252 264 234 250 257 270 259 211 221 192 227 258 259 273 229 240 172 205 182 202 205 192 207 215 209
1 14 19 357 353 351 347 345 42 61 332 330 328 332 313 346 331 319 330 298 285 309 235 253 236 235 225 177 215 189 177 219 191 217 216 240 338 225 207 211 175 172 196 210 212
1 13 9 351 350 332 348 41 48 11 304 319 322 314 306 6 329 326 314 324 351 301 292 284 289 209 200 195 167 184 131 231 164 156 176 178 210 238 212 197 182 190 195 202 202
1 34 12 6 357 331 348 43 255 327 338 327 326 327 318 336 338 332 312 262 247 2 289 300 270 232 182 167 166 147 150 191 301 229 97 161 286 308 193 158 155 179 182 193 162
353 62 14 3 28 45 60 305 330 307 322 302 290 289 309 332 324 337 305 175 295 248 301 241 290 222 161 160 190 161 147 154 226 205 116 160 189 221 182 176 175 150 139 117 131
358 23 13 1 353 30 99 241 298 322 328 307 276 290 302 310 309 310 285 304 194 289 321 270 252 111 135 173 155 135 106 127 265 222 153 132 221 350 282 168 151 117 120 122 124
356 357 346 2 41 7 349 314 306 342 345 296 317 287 286 301 315 293 267 280 304 315 314 302 336 254 185 62 155 165 160 148 154 278 341 172 295 332 311 135 125 125 121 119 120
339 307 338 23 52 340 312 304 329 341 333 352 287 267 281 298 308 249 270 252 305 315 240 350 330 344 76 19 344 208 156 157 206 84 235 104 156 340 53 118 124 124 119 117 116
358 359 341 21 6 28 348 295 341 343 320 344 285 292 314 307 286 286 287 305 329 301 291 216 252 238 201 111 183 167 163 260 139 121 313 26 124 62 85 116 118 114 113 113 111
14 21 17 320 336 328 307 351 333 341 323 322 285 309 319 310 314 275 300 313 312 136 317 178 267 232 223 219 255 152 158 260 129 139 57 123 111 71 72 98 114 112 110 108 108
32 353 326 288 303 323 348 344 326 331 328 306 313 319 314 306 303 307 306 306 274 173 226 335 257 320 31 134 109 123 155 178 89 97 248 155 86 341 92 106 104 106 108 105 105
11 345 302 293 324 351 335 319 310 325 296 307 320 320 317 311 307 291 283 279 267 272 188 217 281 4 308 313 89 76 6 152 64 154 183 152 135 114 102 96 103 106 102 103 104